{"data":{"norad_id":49144,"intl_designator":"2021-082Q","name":"STARLINK-3100","alt_names":[],"object_type":"PAYLOAD","status":"ACTIVE","operator":null,"country":"US","launch_date":"2021-09-14","launch_site_code":"AFWTR","launch_vehicle":null,"mission":null,"orbit_class":"UNKNOWN","rcs_meters":null,"size_class":null,"mass_kg":null,"dimensions":null,"purposes":["comms"],"wikipedia_slug":null,"has_3d_model":false,"image_url":null,"decayed_at":null,"tle_current":{"epoch":"2026-09-19T10:31:58.648800Z","epoch_age_seconds":133055,"freshness":"FRESH","line1":"1 49144U 21082Q   26262.43887325  .00000348  00000+0  36942-4 0  9995","line2":"2 49144  70.0001 165.9352 0002796 269.9007  90.1832 14.98331778275008","mean_motion":14.98331778,"eccentricity":0.0002796,"inclination_deg":70.0001,"raan_deg":165.9352,"arg_perigee_deg":269.9007,"mean_anomaly_deg":90.1832,"bstar":3.6942e-5,"rev_number":27500,"period_min":96.106885080028,"perigee_km":570.10712023654,"apogee_km":573.9936650265,"semimajor_km":6950.1873926315,"source":"CELESTRAK","updated_at":"2026-09-20T09:00:39.248672Z"}}}